Notices

What's New in latest Release from April 7th, 2021:

- Updated Glossary, including Speed of Maximum Gust, and Total Hourly Precipitation

- Updated national and regional climate services offices contacts and prices information

- Addition of station inventory lists for 1981-2010, 1971-2000, and 1961-1990 Normals.

If you haven't already, please take our survey and provide feedback about our website: https://eccc.sondage-survey.ca/f/LanguageSelection.aspx?s=442ca660-fcf1-47c0-95a9-59707d6fd709

Hourly Data Report for November 01, 2019

PINAWA
MANITOBA
Current Station Operator: ECCC - MSC

50°10'38.020" N
96°03'53.000" W
268.00 m
503B1ER
71448
WEA

Download Data

Hourly Data (November 2019)
Hourly Data Report for November 1, 2019
TIME
LST
Temp Definition
°C
Dew Point Definition
°C
Rel Hum Definition
%
Precip. Amount Definition
mm

Wind Dir Definition
10's deg

Wind Spd Definition
km/h
Visibility Definition
km
Stn Press Definition
kPa
Hmdx Definition


Wind Chill Definition


Weather Definition


00:00 -0.8 LegendMM LegendMM 0.0 31 16   97.74   -6 LegendNANA
01:00 -0.9 LegendMM LegendMM 0.0 30 17   97.76   -6 LegendNANA
02:00 -0.8 LegendMM LegendMM 0.0 30 15   97.81   -5 LegendNANA
03:00 -0.8 LegendMM LegendMM 0.0 30 15   97.86   -5 LegendNANA
04:00 -0.9 LegendMM LegendMM 0.0 29 13   97.89   -5 LegendNANA
05:00 -1.0 LegendMM LegendMM 0.0 28 10   97.93   -5 LegendNANA
06:00 -1.2 LegendMM LegendMM 0.0 28 12   97.96   -5 LegendNANA
07:00 -1.2 LegendMM LegendMM 0.0 28 13   97.99   -5 LegendNANA
08:00 -1.3 LegendMM LegendMM 0.0 28 9   98.02   -5 LegendNANA
09:00 -0.9 LegendMM LegendMM 0.0 27 11   98.03   -5 LegendNANA
10:00 -0.5 LegendMM LegendMM 0.2 27 10   98.05   -4 LegendNANA
11:00 -0.4 LegendMM LegendMM 0.3 29 16   98.09   -5 LegendNANA
12:00 0.1 LegendMM LegendMM 0.0 30 17   98.09     LegendNANA
13:00 0.2 LegendMM LegendMM 0.0 31 16   98.09     LegendNANA
14:00 -0.1 LegendMM LegendMM 0.0 29 17   98.11   -5 LegendNANA
15:00 -0.6 LegendMM LegendMM 0.0 31 20   98.18   -6 LegendNANA
16:00 -1.0 LegendMM LegendMM 0.0 30 18   98.22   -6 LegendNANA
17:00 -1.1 LegendMM LegendMM 0.0 30 19   98.26   -6 LegendNANA
18:00 -1.2 LegendMM LegendMM 0.2 30 17   98.31   -6 LegendNANA
19:00 -1.2 LegendMM LegendMM 0.0 30 17   98.33   -6 LegendNANA
20:00 -1.4 LegendMM LegendMM 0.0 30 18   98.33   -7 LegendNANA
21:00 -1.6 LegendMM LegendMM 0.2 31 17   98.36   -7 LegendNANA
22:00 -1.9 LegendMM LegendMM 0.0 32 14   98.38   -7 LegendNANA
23:00 -2.3 LegendMM LegendMM 0.2 34 9   98.38   -6 LegendNANA

Notes on Data Quality.

Legend

  • E = Estimated
  • M = Missing
  • NA = Not Available*
  • [empty] = Indicates an unobserved value
Date modified: